SCP
1 1 1 0 0 0 0 0 0 0 0 0 0 0 0 0 0 0 0 0 0 0 0 0 0 0 0 0 0 0 0 0 0 0 0 0 0 0
1 1 1 0 0 0 0 0 0 0 0 0 0 0 0 0 0 0 0 0 0 0 0 0 0 0 0 0 0 0 0 0 0 0 0 0 0 0
1 1 1 1 0 0 0 0 0 0 0 0 0 0 0 0 0 0 0 0 0 0 0 0 0 0 0 0 0 0 0 0 0 0 0 0 0 0
0 1 1 1 1 0 0 0 0 0 0 0 0 0 0 0 0 0 0 0 0 0 0 0 0 0 0 0 0 0 0 0 0 0 0 0 0 0
0 0 1 1 1 0 0 0 0 0 0 0 0 0 0 0 0 0 0 0 0 0 0 0 0 0 0 0 0 0 0 0 0 0 0 0 0 0
0 0 1 1 1 1 0 0 0 0 0 0 0 0 0 0 0 0 0 0 0 0 0 0 0 0 0 0 0 0 0 0 0 0 0 0 0 0
0 0 1 1 1 1 0 0 0 0 0 0 0 0 0 0 0 0 0 0 0 0 0 0 0 0 0 0 0 0 0 0 0 0 0 0 0 0
0 0 0 1 1 1 0 0 0 0 0 0 0 0 0 0 0 0 0 0 0 0 0 0 0 0 0 0 0 0 0 0 0 0 0 0 0 0
0 0 0 1 1 1 1 0 0 0 0 0 0 0 0 0 0 0 0 0 0 0 0 0 0 0 0 0 0 0 0 0 0 0 0 0 0 0
0 0 0 1 1 1 1 0 0 0 0 0 0 0 0 0 0 0 0 0 0 0 0 0 0 0 0 0 0 0 0 0 0 0 0 0 0 0
0 0 0 1 1 1 1 1 0 0 0 0 0 0 0 0 0 0 0 0 0 0 0 0 0 0 0 0 0 0 0 0 0 0 0 0 0 0
0 0 0 0 1 1 1 1 0 0 0 0 0 0 0 0 0 0 0 0 0 0 0 0 0 0 0 0 0 0 0 0 0 0 0 0 0 0
0 0 0 0 0 0 1 1 0 0 0 0 0 0 0 0 0 0 0 0 0 0 0 0 0 0 0 0 0 0 0 0 0 0 0 0 0 0
0 0 0 0 0 0 0 0 0 0 0 0 0 0 0 0 0 0 0 0 0 0 0 0 0 0 0 0 0 0 0 0 0 0 0 0 0 0
0 0 0 0 0 0 0 0 0 0 0 0 0 0 0 0 0 0 0 0 0 0 0 0 0 0 0 0 0 0 0 0 0 0 0 0 0 0
0 0 0 0 0 0 0 0 0 0 0 0 0 0 0 0 0 0 0 0 0 0 0 0 0 0 0 0 0 0 0 0 0 0 0 0 0 0
0 0 0 0 0 0 0 0 0 0 0 0 0 0 0 0 0 0 0 0 0 0 0 0 0 0 0 0 0 0 0 0 0 0 0 0 0 0
0 0 0 0 0 0 0 0 0 0 0 0 0 0 0 0 0 0 0 0 0 0 0 0 0 0 0 0 0 0 0 0 0 0 0 0 0 0
0 0 0 0 0 0 0 0 0 0 0 0 0 0 0 0 0 0 0 0 0 0 0 0 0 0 0 0 0 0 0 0 0 0 0 0 0 0
0 0 0 0 0 0 0 0 0 0 0 0 0 0 0 0 0 0 0 0 0 0 0 0 0 0 0 0 0 0 0 0 0 0 0 0 0 0
0 0 0 0 0 0 0 0 0 0 0 0 0 0 0 0 0 0 0 0 0 0 0 0 0 0 0 0 0 0 0 0 0 0 0 0 0 0
0 0 0 0 0 0 0 0 0 0 0 0 0 0 0 0 0 0 0 0 0 0 0 0 0 0 0 0 0 0 0 0 0 0 0 0 0 0
0 0 0 0 0 0 0 0 0 0 0 0 0 0 0 0 0 0 0 0 0 0 0 0 0 0 0 0 0 0 0 0 0 0 0 0 0 0
Wind_Speed
10 10 7 6 6 4 4 6 7 6 5 4 3 4 4 4 6 5 4 6 6 5 4 3 2 1 2 3 5 6 7 9 10 11 12 14 15 15
9 10 8 6 6 5 5 4 4 5 4 4 3 3 4 4 7 5 4 6 6 5 4 3 2 1 1 2 4 6 7 8 9 11 12 13 14 15
11 11 10 8 7 6 5 5 4 4 4 2 2 3 4 5 4 4 4 3 3 4 4 4 2 1 1 2 4 5 6 8 9 10 11 13 14 15
13 12 11 9 9 8 7 6 5 4 5 5 3 3 3 4 4 4 3 3 2 3 4 3 2 1 1 2 3 4 5 7 8 9 11 12 13 14
14 13 12 12 11 8 8 7 5 4 4 6 5 3 3 3 4 3 3 2 2 2 3 2 2 1 1 1 3 3 4 6 7 9 10 12 13 14
12 12 12 13 13 11 9 8 7 5 5 6 5 4 3 3 4 3 2 1 1 1 1 1 1 1 1 1 2 3 4 6 7 9 10 11 12 14
11 11 11 13 14 12 9 9 9 7 6 6 5 4 4 5 4 3 3 2 1 1 1 0 1 0 0 1 2 2 4 5 7 9 10 11 12 13
12 10 11 13 14 15 15 14 13 11 9 7 6 6 6 5 4 5 4 3 2 1 2 1 1 1 1 1 2 2 4 5 7 8 10 11 12 13
11 11 9 10 13 11 12 13 11 12 12 9 9 8 8 8 8 6 5 4 3 2 2 1 0 1 1 1 2 2 3 5 6 8 9 10 11 12
10 11 12 11 11 13 11 9 7 6 8 7 8 8 7 8 8 7 6 5 4 1 2 2 0 1 1 1 2 2 3 5 6 8 9 10 11 12
8 10 12 12 16 17 13 11 8 5 6 8 8 9 12 13 11 8 6 5 2 1 1 2 1 0 1 1 2 3 4 5 6 8 9 11 11 11
7 9 13 15 18 19 14 13 11 8 8 8 9 10 9 10 11 7 7 5 3 2 2 2 1 1 1 1 1 1 2 4 7 8 10 11 12 6
6 7 9 17 19 18 14 11 13 12 9 9 7 7 6 5 4 4 3 4 4 3 3 3 2 1 1 1 2 1 1 2 3 4 8 11 12 9
7 6 9 17 18 18 13 15 19 15 8 8 7 6 6 5 4 5 5 5 4 3 5 4 3 3 2 1 2 2 2 2 2 3 4 8 9 11
6 11 14 17 16 14 16 19 16 10 9 8 7 6 5 6 6 5 6 7 7 5 4 2 2 2 2 2 1 1 2 2 2 3 4 4 4 4
8 12 16 16 12 12 14 12 8 8 8 8 7 7 6 6 5 4 4 4 4 3 4 4 2 2 1 1 1 2 1 2 3 4 5 4 4 3
8 7 7 8 8 8 7 7 7 7 7 7 8 8 7 6 5 4 4 3 3 3 1 2 3 2 1 2 1 1 1 2 3 4 4 5 5 4
9 8 8 9 9 9 9 8 7 7 7 7 8 8 7 7 6 4 3 4 4 3 2 1 1 2 2 2 1 1 1 2 3 3 3 4 5 4
7 7 8 9 9 8 8 8 7 7 7 8 8 8 7 7 6 6 5 4 4 3 2 2 1 2 2 1 3 1 1 2 3 3 3 3 4 6
5 7 7 8 8 9 8 8 8 8 7 7 8 8 7 7 7 6 5 5 5 3 2 1 1 1 2 2 1 2 3 2 2 3 3 3 4 6
5 6 7 7 8 8 8 8 9 8 8 8 7 8 7 7 7 6 5 8 5 4 3 1 0 1 1 2 1 2 3 4 4 3 3 3 3 3
5 6 6 7 7 8 8 9 9 8 9 7 7 7 7 7 7 8 7 6 4 4 3 2 1 1 2 1 0 2 3 5 5 5 4 2 1 2
6 6 6 7 7 7 8 9 10 8 8 7 7 7 7 7 6 6 6 6 5 5 5 3 1 2 1 1 0 1 3 4 4 4 4 6 7 7
Wind_Direction
190 187 183 181 174 170 166 163 160 172 195 193 182 182 179 169 173 169 171 186 183 185 184 188 206 250 318 334 334 334 335 334 334 333 334 334 336 337
189 186 185 179 172 165 170 171 167 160 177 180 177 159 165 168 171 162 171 172 182 186 186 185 187 213 310 331 329 331 332 333 334 334 335 338 339 339
190 186 187 177 172 169 169 169 167 151 160 153 128 137 150 158 152 149 152 158 172 183 182 175 178 206 299 317 323 328 334 335 336 337 339 339 339 339
191 184 184 179 174 171 172 174 174 164 157 162 150 152 149 158 152 149 143 143 152 172 168 169 176 213 288 306 322 328 335 337 337 338 337 339 340 339
189 185 181 177 179 175 173 173 169 163 156 154 152 141 131 140 138 132 124 121 131 150 157 171 186 213 298 315 325 332 339 338 337 337 339 340 339 338
188 185 182 181 181 176 175 173 164 157 154 148 145 140 137 136 138 144 142 137 135 117 132 144 159 123 54 357 337 337 340 340 339 339 339 340 340 338
184 185 184 177 178 177 174 170 166 164 159 156 154 145 153 158 169 156 154 136 126 124 119 145 126 98 12 342 339 329 339 341 342 342 342 342 340 337
182 181 176 168 169 171 169 169 170 169 172 169 170 172 176 170 150 149 142 145 192 168 142 200 130 173 259 261 314 339 339 345 346 345 343 341 339 338
180 175 171 169 166 164 162 163 167 168 170 171 172 179 173 172 159 155 160 154 160 154 136 173 151 219 252 304 327 347 355 354 349 345 342 341 340 340
181 175 168 167 168 162 158 158 159 166 170 166 169 171 164 159 161 154 143 113 89 89 118 149 179 265 323 335 324 355 2 357 350 346 344 343 342 341
178 173 167 167 165 158 157 155 146 135 118 125 129 129 132 137 136 124 128 126 126 156 123 125 142 323 322 317 322 351 359 357 353 351 348 344 341 344
170 168 168 166 165 162 162 159 156 151 134 114 107 106 114 128 133 139 148 142 133 165 170 129 130 98 340 313 315 332 354 352 355 353 351 346 345 346
169 170 168 162 161 163 163 162 158 147 140 129 120 113 107 109 106 101 114 139 142 158 160 134 129 125 142 289 306 319 338 324 333 340 346 344 344 344
169 165 160 158 157 158 159 150 142 137 134 132 132 131 128 122 109 99 91 81 80 123 146 133 138 157 150 201 270 311 320 309 321 325 325 334 339 338
159 153 152 152 151 153 151 146 142 140 142 143 146 141 132 129 122 106 91 87 75 67 74 86 129 147 153 177 228 296 319 315 328 327 323 323 317 320
142 141 142 143 144 144 144 144 144 149 151 148 139 130 127 129 130 125 120 112 92 65 47 52 86 135 149 207 206 259 283 294 316 324 318 309 305 303
142 137 140 146 148 144 141 141 140 141 138 135 137 137 137 133 130 127 124 119 111 124 85 41 51 67 107 169 163 241 280 297 299 315 323 318 311 309
145 149 154 155 155 154 152 147 146 149 145 142 142 143 144 143 139 135 129 124 125 131 133 135 82 42 36 19 203 218 285 293 304 312 311 314 313 317
150 155 158 158 155 154 153 152 151 150 145 145 144 145 145 144 143 143 139 128 126 131 137 140 115 95 71 343 320 293 233 299 310 314 309 296 296 305
151 154 156 153 152 152 153 149 145 145 146 146 146 147 148 147 147 149 148 144 139 132 126 113 116 131 157 185 237 299 304 285 296 307 308 302 287 296
151 150 149 148 149 150 151 150 149 150 150 149 149 148 149 148 147 147 145 144 136 136 140 146 178 65 86 90 55 314 310 315 300 284 301 318 325 334
150 148 147 145 147 149 149 148 147 147 149 149 148 147 147 148 147 146 147 147 144 135 126 121 94 58 70 95 37 303 311 323 330 330 310 277 307 331
149 147 146 147 147 147 148 148 146 147 149 148 146 145 145 143 141 140 141 138 134 129 123 115 64 50 59 93 84 317 319 328 336 344 338 334 323 305